EST,Max TemperatureF,Mean TemperatureF,Min TemperatureF,Max Dew PointF,MeanDew PointF,Min DewpointF,Max Humidity, Mean Humidity, Min Humidity, Max Sea Level PressureIn, Mean Sea Level PressureIn, Min Sea Level PressureIn, Max VisibilityMiles, Mean VisibilityMiles, Min VisibilityMiles, Max Wind SpeedMPH, Mean Wind SpeedMPH, Max Gust SpeedMPH,PrecipitationIn, CloudCover, Events, WindDirDegrees
2012-2-1,59,44,28,44,37,27,96,73,53,30.00,29.88,29.79,10,10,9,12,3,21,0.00,3,Rain,239
2012-2-2,44,37,30,34,29,25,89,76,58,30.17,30.06,29.98,10,10,8,9,5,20,0.00,5,Snow,1
2012-2-3,39,32,26,25,15,7,75,52,27,30.37,30.29,30.18,10,10,10,12,7,20,0.00,3,,318
2012-2-4,46,36,21,23,18,10,72,49,33,30.26,30.16,30.09,10,10,10,10,5,23,0.00,2,,292
2012-2-5,37,28,18,16,12,6,88,59,28,30.16,30.11,30.08,10,10,10,8,2,,0.00,0,,335
2012-2-6,51,38,24,30,22,14,65,54,27,30.09,29.96,29.87,10,10,10,13,6,22,0.00,0,,223
2012-2-7,48,38,28,29,25,17,85,57,41,30.22,30.01,29.90,10,10,10,12,5,20,0.00,2,,309
2012-2-8,39,28,16,24,15,6,88,58,28,30.32,30.22,30.08,10,10,10,9,2,16,0.00,3,,232
2012-2-9,46,35,21,27,17,10,92,57,22,30.10,30.03,29.98,10,10,8,9,4,16,0.00,1,Snow,278
2012-2-10,48,33,18,37,25,14,89,67,34,30.11,30.02,29.90,10,10,6,15,4,23,0.04,2,Rain,209
2012-2-11,39,36,30,39,31,17,100,90,57,29.88,29.68,29.50,10,5,1,14,4,22,0.16,8,Rain-Snow,345
2012-2-12,30,24,17,15,3,-3,54,41,32,29.89,29.70,29.54,10,10,10,21,12,31,0.00,0,,299
2012-2-13,43,29,15,19,13,1,85,53,29,29.99,29.90,29.82,10,10,10,16,5,28,0.00,2,,245
2012-2-14,43,32,21,28,21,12,92,67,28,30.12,30.08,30.00,10,10,10,9,2,,0.00,5,,196
2012-2-15,46,38,30,41,36,27,100,93,73,30.23,30.16,30.10,10,6,0,4,0,,0.02,8,Fog-Rain,156
2012-2-16,46,34,23,39,30,21,100,89,56,30.28,30.21,30.06,10,5,0,8,1,,0.07,4,Fog-Rain,202
2012-2-17,52,42,30,47,38,21,100,85,42,30.04,29.94,29.84,10,8,2,13,5,,0.03,6,Rain,222
2012-2-18,48,40,32,26,22,17,73,52,33,29.98,29.92,29.85,10,10,10,14,7,21,0.00,2,,253
2012-2-19,46,34,21,26,22,14,92,67,28,30.05,30.00,29.96,10,10,8,10,3,,0.00,0,,349
2012-2-20,42,34,25,20,13,7,72,47,24,30.29,30.11,29.98,10,10,10,16,6,25,0.00,0,,334
2012-2-21,41,28,16,38,22,13,100,72,40,30.34,30.18,29.86,10,10,8,12,3,21,0.04,2,Rain,174
2012-2-22,55,42,30,40,36,28,100,67,43,29.85,29.73,29.56,10,5,0,14,3,22,0.00,3,Fog,182
2012-2-23,57,47,34,46,36,22,93,66,35,29.80,29.50,29.37,10,10,10,18,8,26,0.00,4,Rain,243
2012-2-24,42,35,28,43,35,25,100,93,70,29.80,29.59,29.20,10,6,1,14,3,20,0.38,8,Rain-Snow,110
2012-2-25,45,39,32,44,32,18,100,80,35,29.80,29.45,29.23,10,10,9,25,13,37,0.00,3,Rain,263
2012-2-26,42,32,21,42,34,27,100,98,96,30.45,30.23,29.84,10,10,10,17,11,28,0.00,0,,289
2012-2-27,48,32,17,38,30,17,79,60,43,30.45,30.27,30.02,10,10,10,16,5,26,0.00,3,,201
2012-2-28,50,39,28,34,21,14,76,48,26,30.39,30.25,30.04,10,10,10,17,8,26,0.00,2,,302
2012-2-29,41,33,25,34,30,16,96,87,36,30.39,30.15,29.89,10,4,1,9,3,,0.42,7,Rain-Snow,74